sat.trackr.live / text

‹ back to catalog

STARLINK-4268

NORAD 53183 · 2022-083BD

PAYLOAD ACTIVE UNKNOWN

§ Identity

Operator
Country
US
Launch date
2022-07-17
Launch site
AFETR
Launch vehicle
Mass (kg)
RCS (m²)

Purposes: comms

External: N2YO · Heavens-Above · Gunter

§ Orbital elements

Epoch: 2026-05-24T23:17:56.978304Z

Period
95.44 min
Inclination
53.2125°
Eccentricity
0.0001156
Mean motion
15.08835658 rev/d
Perigee alt
539.0 km
Apogee alt
540.6 km
Semi-major
6,917.9 km
B*
1.1778e-5
RAAN
146.5941°
Arg perigee
77.1725°
Mean anomaly
282.9396°
Rev number
21,335

§ Raw data

STARLINK-42681 53183U 22083BD  26144.97079836 -.00000100  00000+0  11778-4 0  99902 53183  53.2125 146.5941 0001156  77.1725 282.9396 15.08835658213354

JSON: /api/v1/satellites/53183 · /tle

For live sub-satellite position, see the globe view (requires WebGL).

§ Visibility from observer

Set your observer location to see the next 7 days of passes ≥ 10°. The values pass through the URL so the page stays shareable.

No JS? Fill the form by hand. The geolocation button needs JavaScript.